User: anonymous   Login
Location: Namasale
(1.5000°N, 32.6167°E)
Time: 07:02:00
(UTC+00:00)
Language:

Courier 1B Rocket - Orbit

View from above orbital plane
View from above orbital plane
View from above satellite
View from above satellite

Ground track
Ground track

The orbit data is extracted from the following two-line orbital elements,

1 00059U 60013B   21109.59837091  .00000102  00000-0  19388-4 0  9995
2 00059  28.2487  85.5963 0189056 335.7806  23.3949 13.52983810987851
Epoch (UTC): 19 April 2021 14:21:39
Eccentricity: 0.0189056
inclination: 28.2487°
perigee height: 920 km
apogee height: 1202 km
right ascension of ascending node: 85.5963°
argument of perigee: 335.7806°
revolutions per day: 13.52983810
mean anomaly at epoch: 23.3949°
orbit number at epoch: 98785

The dashed part of the orbit path shows where the satellite is in the earth's shadow,  

DLR